Torna al catalogo

FENGYUN 1C DEB

AttivoSSO
NORAD 31553·DEBRIS·🇨🇳 China

Lanciato May 10, 1999 da Taiyuan Satellite Launch Center

Loading…

Prossimi Passaggi (prossime 24 ore)

TLE

AggiornatoSource: Space-Track

Epoca: Sep 14, 2026, 03:59 UTC

1 31553U 99025BYU 26257.16651660  .00002225  00000-0  83865-3 0  9999
2 31553  98.9882 326.6255 0028168  19.1174   9.1575 14.32258725998507

Traccia FENGYUN 1C DEB in tempo reale con AllMySat

Download on the App Store